Regional Weather Roundup
Issued by NWS

Home | Current Version | Previous Version | Graphics & Text | Print | Product List | Glossary On
Versions: 1 2 3 4 5 6 7 8 9 10 11 12 13 14 15 16 17 18 19 20 21 22 23 24 25 26 27 28 29 30 31 32 33 34 35 36 37 38 39 40 41 42 43 44 45 46 47 48 49 50
000
ASUS43 KFSD 241210
RWRSD

WEATHER ROUNDUP FOR SOUTH DAKOTA
NATIONAL WEATHER SERVICE SIOUX FALLS SD
700 AM CDT THU MAY 24 2018

NOTE: "FAIR" INDICATES FEW OR NO CLOUDS BELOW 12,000 FEET WITH NO
SIGNIFICANT WEATHER AND/OR OBSTRUCTIONS TO VISIBILITY.


SDZ001>005-009-010-012>017-241300-
NORTHWEST AND NORTH CENTRAL SOUTH DAKOTA

CITY           SKY/WX    TMP DP  RH WIND       PRES   REMARKS
BUFFALO          N/A     55  48  77 W8        29.80S
FAITH            N/A     55  54  96 S15       29.86F
MOBRIDGE       MOCLDY    63  57  81 SE7       29.82R
$$

SDZ012>016-024>037-041>051-057-063-072>074-241300-
SOUTHWEST AND SOUTH CENTRAL SOUTH DAKOTA

CITY           SKY/WX    TMP DP  RH WIND       PRES   REMARKS
RAPID CTY ARPT CLEAR     56  47  71 S9        29.91F
PIERRE         PTCLDY    63  56  78 SW9       29.86R
CUSTER         CLEAR     47  41  80 CALM      30.03R
ELLSWORTH AFB  CLEAR     58  47  66 S7        29.90S
PHILIP         CLEAR     53  53 100 CALM      29.90S
PINE RIDGE     CLEAR     57  52  83 S13       29.96S
SPEARFISH      FAIR      61  45  55 W7G20     29.93R
WINNER         FAIR      65  55  70 S15       29.91R
$$

SDZ004>011-016>023-039-040-241300-
NORTHEAST SOUTH DAKOTA

CITY           SKY/WX    TMP DP  RH WIND       PRES   REMARKS
ABERDEEN       MOCLDY    67  61  81 S13       29.84S
WATERTOWN      PTSUNNY   67  62  84 S10       29.91F
BROOKINGS      CLOUDY    69  62  78 S15G23    29.98S
SISSETON         N/A     72  62  71 SE18      29.86F
$$

SDZ017-020-022-023-036>040-048>070-241300-
SOUTHEAST SOUTH DAKOTA

CITY           SKY/WX    TMP DP  RH WIND       PRES   REMARKS
SIOUX FALLS    CLOUDY    67  62  84 S8        30.01F
HURON          CLOUDY    66  58  75 S8        29.87R
CHAMBERLAIN    MOCLDY    65  59  81 S10       29.88S
MITCHELL       CLOUDY    67  59  75 SE18      29.86F
YANKTON        PTCLDY    66  62  87 SE6       30.00S
$$

ABBREVIATIONS USED IN REMARKS
   TC - TEMPERATURE IN CELSIUS
  WCI - WIND CHILL INDEX
   HX - HEAT INDEX
  VSB - VISIBILITY





USA.gov is the U.S. government's official web portal to all federal, state and local government web resources and services.